Terminal Aerodrome Forecast
Issued by NWS

Home | Current Version | Previous Version | Text Only | Print | Product List | Glossary On
Versions: 1 2 3 4 5 6 7 8 9 10 11 12 13 14 15 16 17 18 19 20 21 22 23 24 25 26 27 28 29 30 31
000
FTUS45 KSLC 240704 AAA
TAFOGD
TAF AMD
KOGD 240704Z 2407/2506 17009KT P6SM FEW080 SCT150
      TEMPO 2408/2410 28014G21KT
     FM241600 31010KT P6SM FEW150
     FM250300 VRB05KT P6SM SKC=

USA.gov is the U.S. government's official web portal to all federal, state and local government web resources and services.